CZ-2C R/B

Last updated on Wed Dec 17 2025 00:02:15 GMT+0000 (Coordinated Universal Time)

1 54039U 22132E 25349.95296791 .00024339 00000+0 35971-3 0 9990 2 54039 97.2942 346.2135 0022624 46.5023 313.8107 15.55017309177336
UTC large
Height (km)
Speed (km/s)
/
Latitude / Longitude
Inclination (degrees)
Orbital Period (minutes)
Azimuth
Elevation
Range (km)
Doppler Factor

Next 0 passes for location: London (51.5072 / 0.1276)

Sorry there are no passes over London.